When you browse on this site, cookies collect data to enhance your experience and personalize the content and advertising you see.
Visit our Privacy Policy to learn more. By continuing to use the site, you agree to this use of cookies and data.
  • In Slovakia
  • List of Countries
  • For 7 days
  • Water Temperature
  • Satellite Maps
  • Weather Map
  • Weather Widgets
  • user-avatar
    Login

    Hourly Weather Mochudi

    Today, 11 December, Tuesday

    Time Temperature Precipitation Wind Pressure Humidity
    00:00 +24°C° 0.1 mm 3 mps 680 mmHg 59%
    01:00 +22°C° 0.1 mm 4 mps 680 mmHg 65%
    02:00 +21°C° 0.1 mm 4 mps 680 mmHg 70%
    03:00 +21°C° 0 mm 5 mps 680 mmHg 72%
    04:00 +20°C° 0 mm 5 mps 681 mmHg 74%
    05:00 +20°C° 0 mm 5 mps 681 mmHg 75%
    06:00 +21°C° 0 mm 5 mps 681 mmHg 71%
    07:00 +21°C° 0 mm 5 mps 682 mmHg 68%
    08:00 +22°C° 0 mm 4 mps 682 mmHg 64%
    09:00 +25°C° 0 mm 4 mps 682 mmHg 56%
    10:00 +27°C° 0 mm 4 mps 682 mmHg 48%
    11:00 +29°C° 0 mm 4 mps 683 mmHg 41%
    12:00 +30°C° 0 mm 4 mps 682 mmHg 36%
    13:00 +31°C° 0 mm 3 mps 682 mmHg 31%
    14:00 +33°C° 0 mm 3 mps 681 mmHg 27%
    15:00 +33°C° 0 mm 3 mps 681 mmHg 26%
    16:00 +32°C° 0 mm 2 mps 680 mmHg 25%
    17:00 +32°C° 0 mm 2 mps 680 mmHg 24%
    18:00 +31°C° 0 mm 2 mps 680 mmHg 27%
    19:00 +30°C° 0 mm 3 mps 680 mmHg 31%
    20:00 +28°C° 0 mm 3 mps 680 mmHg 34%
    21:00 +27°C° 0 mm 3 mps 680 mmHg 38%
    22:00 +27°C° 0 mm 4 mps 680 mmHg 41%
    23:00 +26°C° 0 mm 4 mps 681 mmHg 45%

    Tomorrow, 12 December, Wednesday

    Time Temperature Precipitation Wind Pressure Humidity
    00:00 +25°C° 0 mm 4 mps 680 mmHg 49%
    01:00 +23°C° 0 mm 4 mps 680 mmHg 53%
    02:00 +23°C° 0 mm 4 mps 679 mmHg 56%
    03:00 +22°C° 0 mm 3 mps 680 mmHg 58%
    04:00 +22°C° 0 mm 3 mps 680 mmHg 60%
    05:00 +21°C° 0 mm 3 mps 680 mmHg 62%
    06:00 +22°C° 0 mm 3 mps 680 mmHg 58%
    07:00 +23°C° 0 mm 4 mps 681 mmHg 55%
    08:00 +25°C° 0 mm 4 mps 681 mmHg 51%
    09:00 +28°C° 0 mm 4 mps 682 mmHg 44%
    10:00 +30°C° 0 mm 3 mps 682 mmHg 37%
    11:00 +33°C° 0 mm 3 mps 682 mmHg 30%
    12:00 +35°C° 0 mm 2 mps 682 mmHg 26%
    13:00 +37°C° 0 mm 2 mps 681 mmHg 22%
    14:00 +39°C° 0 mm 1 mps 681 mmHg 18%
    15:00 +37°C° 0 mm 1 mps 680 mmHg 18%
    16:00 +37°C° 0 mm 1 mps 680 mmHg 17%
    17:00 +37°C° 0 mm 1 mps 679 mmHg 16%
    18:00 +36°C° 0 mm 2 mps 679 mmHg 18%
    19:00 +35°C° 0 mm 2 mps 679 mmHg 21%
    20:00 +32°C° 0 mm 2 mps 679 mmHg 23%
    21:00 +31°C° 0 mm 3 mps 679 mmHg 25%
    22:00 +30°C° 0 mm 3 mps 679 mmHg 27%
    23:00 +30°C° 0 mm 3 mps 680 mmHg 29%

    Day after tomorrow, 13 December, Thursday

    Time Temperature Precipitation Wind Pressure Humidity
    00:00 +29°C° 0 mm 3 mps 679 mmHg 31%
    01:00 +28°C° 0 mm 3 mps 679 mmHg 33%
    02:00 +28°C° 0 mm 3 mps 679 mmHg 35%
    03:00 +27°C° 0 mm 2 mps 679 mmHg 36%
    04:00 +26°C° 0 mm 2 mps 679 mmHg 37%
    05:00 +26°C° 0 mm 1 mps 679 mmHg 38%
    06:00 +28°C° 0 mm 2 mps 680 mmHg 34%
    07:00 +30°C° 0 mm 2 mps 681 mmHg 30%
    08:00 +31°C° 0 mm 2 mps 682 mmHg 26%
    09:00 +35°C° 0 mm 2 mps 682 mmHg 22%
    10:00 +37°C° 0 mm 2 mps 682 mmHg 19%
    11:00 +39°C° 0 mm 2 mps 682 mmHg 15%
    12:00 +40°C° 0 mm 2 mps 682 mmHg 13%
    13:00 +42°C° 0 mm 1 mps 682 mmHg 11%
    14:00 +43°C° 0 mm 1 mps 681 mmHg 9%
    15:00 +43°C° 0 mm 1 mps 681 mmHg 9%
    16:00 +42°C° 0 mm 1 mps 680 mmHg 9%
    17:00 +41°C° 0 mm 1 mps 679 mmHg 9%
    18:00 +40°C° 0 mm 1 mps 679 mmHg 10%
    19:00 +38°C° 0 mm 2 mps 679 mmHg 12%
    20:00 +36°C° 0 mm 2 mps 679 mmHg 13%
    21:00 +36°C° 0 mm 2 mps 680 mmHg 14%
    22:00 +35°C° 0 mm 2 mps 680 mmHg 14%
    23:00 +35°C° 0 mm 2 mps 680 mmHg 15%

    14 December, Friday

    Time Temperature Precipitation Wind Pressure Humidity
    00:00 +34°C° 0 mm 3 mps 680 mmHg 19%
    01:00 +33°C° 0 mm 3 mps 680 mmHg 22%
    02:00 +32°C° 0 mm 4 mps 679 mmHg 26%
    03:00 +30°C° 0 mm 4 mps 680 mmHg 29%
    04:00 +29°C° 0 mm 4 mps 680 mmHg 32%
    05:00 +28°C° 0 mm 4 mps 680 mmHg 35%
    06:00 +29°C° 0 mm 4 mps 681 mmHg 34%
    07:00 +30°C° 0 mm 5 mps 682 mmHg 33%
    08:00 +32°C° 0 mm 5 mps 683 mmHg 31%
    09:00 +34°C° 0 mm 5 mps 683 mmHg 29%
    10:00 +36°C° 0 mm 5 mps 683 mmHg 26%
    11:00 +39°C° 0 mm 5 mps 684 mmHg 24%
    12:00 +40°C° 0 mm 5 mps 683 mmHg 22%
    13:00 +41°C° 0 mm 5 mps 682 mmHg 20%
    14:00 +42°C° 0 mm 4 mps 682 mmHg 18%
    15:00 +41°C° 0 mm 4 mps 681 mmHg 18%
    16:00 +41°C° 0 mm 5 mps 681 mmHg 19%
    17:00 +40°C° 0 mm 5 mps 680 mmHg 19%
    18:00 +37°C° 0.2 mm 5 mps 680 mmHg 24%
    19:00 +35°C° 0.2 mm 5 mps 680 mmHg 29%
    20:00 +33°C° 0.2 mm 5 mps 681 mmHg 34%
    21:00 +32°C° 0.2 mm 5 mps 681 mmHg 36%
    22:00 +32°C° 0.2 mm 5 mps 682 mmHg 38%
    23:00 +30°C° 0.2 mm 4 mps 682 mmHg 40%

    15 December, Saturday

    Time Temperature Precipitation Wind Pressure Humidity
    00:00 +29°C° 0 mm 5 mps 682 mmHg 43%
    01:00 +29°C° 0 mm 5 mps 682 mmHg 46%
    02:00 +28°C° 0 mm 6 mps 682 mmHg 48%
    03:00 +27°C° 0 mm 5 mps 682 mmHg 51%
    04:00 +26°C° 0 mm 4 mps 682 mmHg 54%
    05:00 +26°C° 0 mm 4 mps 682 mmHg 57%
    06:00 +26°C° 0 mm 5 mps 683 mmHg 55%
    07:00 +27°C° 0 mm 5 mps 684 mmHg 54%
    08:00 +28°C° 0 mm 6 mps 684 mmHg 52%
    09:00 +30°C° 0 mm 6 mps 684 mmHg 46%
    10:00 +32°C° 0 mm 5 mps 684 mmHg 40%
    11:00 +34°C° 0 mm 5 mps 684 mmHg 34%
    12:00 +36°C° 0 mm 5 mps 683 mmHg 30%
    13:00 +37°C° 0 mm 4 mps 683 mmHg 26%
    14:00 +38°C° 0 mm 4 mps 682 mmHg 21%
    15:00 +38°C° 0 mm 4 mps 682 mmHg 20%
    16:00 +38°C° 0 mm 4 mps 681 mmHg 19%
    17:00 +38°C° 0 mm 3 mps 681 mmHg 18%
    18:00 +37°C° 0 mm 3 mps 681 mmHg 20%
    19:00 +35°C° 0 mm 3 mps 681 mmHg 22%
    20:00 +33°C° 0 mm 3 mps 681 mmHg 25%
    21:00 +33°C° 0 mm 3 mps 681 mmHg 28%
    22:00 +31°C° 0 mm 3 mps 681 mmHg 31%
    23:00 +30°C° 0 mm 3 mps 681 mmHg 34%

    16 December, Sunday

    Time Temperature Precipitation Wind Pressure Humidity
    00:00 +29°C° 0 mm 3 mps 680 mmHg 36%
    01:00 +28°C° 0 mm 3 mps 680 mmHg 38%
    02:00 +28°C° 0 mm 3 mps 680 mmHg 39%
    03:00 +27°C° 0 mm 3 mps 680 mmHg 41%
    04:00 +27°C° 0 mm 3 mps 680 mmHg 42%
    05:00 +27°C° 0 mm 3 mps 680 mmHg 43%
    06:00 +28°C° 0 mm 3 mps 681 mmHg 42%
    07:00 +29°C° 0 mm 4 mps 682 mmHg 41%
    08:00 +30°C° 0 mm 4 mps 682 mmHg 40%
    09:00 +33°C° 0 mm 4 mps 682 mmHg 35%
    10:00 +35°C° 0 mm 4 mps 682 mmHg 30%
    11:00 +37°C° 0 mm 4 mps 682 mmHg 25%
    12:00 +38°C° 0 mm 3 mps 682 mmHg 22%
    13:00 +40°C° 0 mm 2 mps 681 mmHg 19%
    14:00 +41°C° 0 mm 2 mps 681 mmHg 16%
    15:00 +41°C° 0 mm 2 mps 680 mmHg 16%
    16:00 +41°C° 0 mm 1 mps 680 mmHg 15%
    17:00 +40°C° 0 mm 1 mps 679 mmHg 15%
    18:00 +39°C° 0 mm 2 mps 679 mmHg 17%
    19:00 +37°C° 0 mm 2 mps 679 mmHg 19%
    20:00 +35°C° 0 mm 3 mps 679 mmHg 21%
    21:00 +34°C° 0 mm 3 mps 679 mmHg 25%
    22:00 +34°C° 0 mm 3 mps 679 mmHg 28%
    23:00 +33°C° 0 mm 4 mps 680 mmHg 31%
    Show more